Flag for Brazil Weather past 2 weeks in Manaus, Amazonas, Brazil

Now
84 °F

Scattered clouds.


Feels Like: 91 °F
Forecast: 75 / 95 °F
Wind: 7 mph from West

Location: Manaus Aeroporto

Current Time: Sep 18, 2014 at 10:49:12 AM

Latest Report: Sep 18, 2014 at 10:00 AM


Visibility: N/A

Pressure: 29.95 "Hg

Humidity: 70%

Dew point: 73 °F

Location of ManausLocation

Historic Weather in Manaus — Graph

°F

Manaus temperature yesterday

Maximum temperature yesterday: 86 °F (at 10:00 AM)
Minimum temperature yesterday: 77 °F (at 6:00 AM)
Average temperature yesterday: 81 °F

Past Weeks' High & Low Weather Summary

 TemperatureHumidityPressure
High95 °F (Sep 5, 1:00 PM)89% (Sep 5, 4:00 AM)29.98 "Hg (Sep 5, 4:00 AM)
Low73 °F (Sep 18, 4:00 AM)19% (Sep 8, 4:00 PM)29.71 "Hg (Sep 11, 4:00 PM)
Average84 °F68%29.86 "Hg
* Reported Sep 3 9:00 AM — Sep 18 9:00 AM, Manaus, Weather by CustomWeather, © 2014

Note: Actual official high and low records may vary slightly from our data, if they occured in-between our weather recording intervals... More about our weather records

Advertising

Manaus weather history for previous 24 hours

 ConditionsComfort  
Time TempWeatherWind HumidityBarometerVisibility
9:00 AM
Sep 18
82 °FSunny.5 mph70%29.95 "Hg10 mi
8:00 AM79 °FSunny.5 mph79%29.95 "Hg10 mi
7:00 AM79 °FScattered clouds.5 mph79%29.92 "HgN/A
6:00 AM75 °FScattered clouds.3 mph89%29.89 "HgN/A
5:00 AM75 °FPassing clouds.5 mph89%29.89 "HgN/A
4:00 AM73 °FThundershowers. Passing clouds.No wind89%29.86 "HgN/A
3:00 AM75 °FPassing clouds.3 mph83%29.86 "HgN/A
2:00 AM77 °FClear.5 mph79%29.86 "Hg10 mi
1:00 AM75 °FClear.6 mph83%29.86 "Hg10 mi
12:00 AM77 °FClear.7 mph74%29.89 "Hg10 mi
11:00 PM
Sep 17
77 °FClear.7 mph83%29.92 "Hg10 mi
10:00 PM77 °FClear.7 mph83%29.92 "Hg10 mi
9:00 PM79 °FClear.8 mph70%29.89 "Hg10 mi
8:00 PM79 °FPassing clouds.6 mph79%29.89 "HgN/A
7:00 PM79 °FPassing clouds.7 mph79%29.86 "HgN/A
6:00 PM81 °FPassing clouds.3 mph66%29.80 "HgN/A
5:00 PM81 °FPassing clouds.6 mph66%29.80 "HgN/A
4:00 PM82 °FPassing clouds.5 mph62%29.83 "HgN/A
3:00 PM82 °FScattered showers. Scattered clouds.6 mph62%N/AN/A
2:00 PM84 °FThunderstorms. Partly sunny.8 mphN/AN/AN/A
1:00 PM86 °FScattered clouds.5 mph66%29.89 "HgN/A
12:00 PM81 °FWarm.5 mph74%29.92 "HgN/A
11:00 AM84 °FThunderstorms. Scattered clouds.7 mph70%29.95 "HgN/A
10:00 AM86 °FPassing clouds.3 mph66%29.95 "HgN/A
Weather by CustomWeather, © 2014

See weather overviewHow to use our weather pages